Weather History for Biloxi, MS

Change the Weather History Date:

Friday, March 30, 2012

  Actual Average Record
Temperature  
Mean Temperature 74 °F -  
Max Temperature 80 °F 73 °F 83 °F (1974)
Min Temperature 69 °F 56 °F 39 °F (1950)
Cooling Degree Days 9    
Growing Degree Days 24 (Base 50)    
Moisture  
Dew Point 69 °F    
Average Humidity 87    
Maximum Humidity 100    
Minimum Humidity 65    
Precipitation  
Precipitation 0.15 in - - ()
Sea Level Pressure  
Sea Level Pressure 29.94 in    
Wind  
Wind Speed 6 mph (SSW)    
Max Wind Speed 16 mph    
Max Gust Speed -    
Visibility 9 miles    
Events Rain , Thunderstorm    
Averages and records for this station are not official NWS values.
T = Trace of Precipitation, MM = Missing Value Source: NWS Daily Summary

Daily Weather History Graph

Daily Weather History Graph

Search for Another Location

Airport:

Trip Planner

Search our weather history database for the weather conditions in past years. The results will help you decide how hot, cold, wet, or windy it might be!

Date:

Astronomy

Mar. 30, 2012 Rise Set
Actual Time 6:46 AM CDT 7:13 PM CDT
Civil Twilight 6:22 AM CDT 7:37 PM CDT
Nautical Twilight 5:54 AM CDT 8:06 PM CDT
Astronomical Twilight 5:25 AM CDT 8:34 PM CDT
Moon 12:10 PM CDT (3/30) 1:31 AM CDT (3/30)
Length of Visible Light 13h 15m
Length of Day
12h 27m
Waxing Crescent, 49% of the Moon is Illuminated
Mar 30
Waxing Crescent
Mar 30
First Quarter
Apr 6
Full
Apr 13
Last Quarter
Apr 21
New

Hourly Weather History & Observations

Time (CDT) Temp. Dew Point Humidity Pressure Visibility Wind Dir Wind Speed Gust Speed Precip Events Conditions
12:00 AM 73.4 °F 69.8 °F 88% 29.95 in 10.0 mi SSE 6.9 mph - N/A   Scattered Clouds
12:55 AM 73.2 °F 69.4 °F 88% 29.94 in 10.0 mi SE 4.6 mph - N/A   Scattered Clouds
1:03 AM 73.4 °F 69.8 °F 88% 29.93 in 10.0 mi SE 4.6 mph - N/A   Mostly Cloudy
1:06 AM 73.4 °F 69.8 °F 88% 29.93 in 10.0 mi SE 4.6 mph - N/A   Mostly Cloudy
1:13 AM 73.4 °F 69.8 °F 88% 29.93 in 10.0 mi SSE 4.6 mph - N/A   Mostly Cloudy
1:18 AM 73.4 °F 69.8 °F 88% 29.93 in 10.0 mi South 5.8 mph - N/A   Mostly Cloudy
1:25 AM 73.4 °F 69.8 °F 88% 29.93 in 10.0 mi SSW 8.1 mph - N/A   Mostly Cloudy
1:32 AM 73.4 °F 68.0 °F 83% 29.93 in 10.0 mi South 5.8 mph - N/A   Scattered Clouds
1:55 AM 72.9 °F 67.8 °F 84% 29.92 in 10.0 mi South 8.1 mph - N/A   Partly Cloudy
2:55 AM 72.3 °F 68.2 °F 87% 29.91 in 10.0 mi South 6.9 mph - N/A   Scattered Clouds
3:43 AM 71.6 °F 68.0 °F 88% 29.92 in 10.0 mi SSW 6.9 mph - N/A   Mostly Cloudy
3:47 AM 71.6 °F 68.0 °F 88% 29.92 in 10.0 mi SSW 8.1 mph - N/A   Scattered Clouds
3:55 AM 71.8 °F 68.0 °F 88% 29.92 in 10.0 mi SSW 6.9 mph - N/A   Partly Cloudy
4:55 AM 72.7 °F 69.6 °F 90% 29.92 in 10.0 mi SSW 6.9 mph - N/A   Scattered Clouds
5:07 AM 73.4 °F 69.8 °F 88% 29.92 in 10.0 mi SSW 6.9 mph - N/A   Mostly Cloudy
5:09 AM 73.4 °F 69.8 °F 88% 29.92 in 10.0 mi SSW 6.9 mph - N/A   Mostly Cloudy
5:16 AM 73.4 °F 69.8 °F 88% 29.93 in 10.0 mi SSW 6.9 mph - N/A   Mostly Cloudy
5:44 AM 73.4 °F 69.8 °F 88% 29.94 in 10.0 mi SW 6.9 mph - N/A   Mostly Cloudy
5:55 AM 72.7 °F 69.6 °F 90% 29.94 in 10.0 mi SSW 8.1 mph - N/A   Mostly Cloudy
5:58 AM 73.4 °F 69.8 °F 88% 29.94 in 10.0 mi SSW 8.1 mph - N/A   Mostly Cloudy
6:04 AM 73.4 °F 69.8 °F 88% 29.94 in 10.0 mi SSW 5.8 mph - N/A   Mostly Cloudy
6:13 AM 73.4 °F 69.8 °F 88% 29.94 in 10.0 mi SSW 8.1 mph - N/A   Mostly Cloudy
6:34 AM 73.4 °F 69.8 °F 88% 29.94 in 10.0 mi SW 8.1 mph - N/A Rain Light Rain
6:39 AM 73.4 °F 69.8 °F 88% 29.94 in 10.0 mi SSW 8.1 mph - N/A Rain Light Rain
6:46 AM 71.6 °F 69.8 °F 94% 29.95 in 5.0 mi West 4.6 mph - N/A Rain Rain
6:51 AM 71.6 °F 71.6 °F 100% 29.95 in 2.5 mi Variable 4.6 mph - N/A Rain Rain
6:52 AM 71.6 °F 69.8 °F 94% 29.95 in 2.0 mi SW 8.1 mph - N/A Rain Rain
6:55 AM 71.2 °F 69.6 °F 95% 29.95 in 2.5 mi SW 8.1 mph - 0.12 in Rain Light Rain
6:57 AM 71.6 °F 69.8 °F 94% 29.95 in 2.5 mi SSW 8.1 mph - N/A Rain Light Rain
6:59 AM 71.6 °F 69.8 °F 94% 29.95 in 3.0 mi SSW 6.9 mph - N/A Rain Light Rain
7:00 AM 71.6 °F 69.8 °F 94% 29.96 in 3.0 mi SSW 6.9 mph - N/A Rain Light Rain
7:03 AM 71.6 °F 69.8 °F 94% 29.96 in 7.0 mi SW 4.6 mph - N/A Rain Light Rain
7:08 AM 71.6 °F 69.8 °F 94% 29.96 in 10.0 mi Calm Calm - N/A Rain Light Rain
7:11 AM 71.6 °F 69.8 °F 94% 29.96 in 10.0 mi Calm Calm - N/A   Overcast
7:13 AM 71.6 °F 71.6 °F 100% 29.96 in 10.0 mi Calm Calm - N/A   Mostly Cloudy
7:39 AM 71.6 °F 71.6 °F 100% 29.96 in 10.0 mi Calm Calm - N/A   Mostly Cloudy
7:46 AM 71.6 °F 71.6 °F 100% 29.96 in 10.0 mi Calm Calm - N/A Thunderstorm Overcast
7:55 AM 71.1 °F 70.7 °F 99% 29.96 in 10.0 mi Calm Calm - 0.02 in Thunderstorm Overcast
8:02 AM 71.6 °F 69.8 °F 94% 29.96 in 10.0 mi Calm Calm - N/A   Mostly Cloudy
8:04 AM 69.8 °F 69.8 °F 100% 29.96 in 10.0 mi Calm Calm - N/A   Mostly Cloudy
8:55 AM 72.0 °F 71.8 °F 99% 29.98 in 10.0 mi NNE 3.5 mph - N/A   Scattered Clouds
9:55 AM 75.6 °F 70.5 °F 84% 29.97 in 10.0 mi Calm Calm - N/A   Mostly Cloudy
10:00 AM 77.0 °F 69.8 °F 78% 29.97 in 10.0 mi Calm Calm - N/A   Mostly Cloudy
10:13 AM 77.0 °F 69.8 °F 78% 29.97 in 10.0 mi Calm Calm - N/A   Mostly Cloudy
10:55 AM 75.9 °F 67.6 °F 75% 29.97 in 10.0 mi SSW 4.6 mph - N/A   Mostly Cloudy
11:55 AM 79.3 °F 66.7 °F 65% 29.96 in 10.0 mi Variable 5.8 mph - N/A   Partly Cloudy
12:55 PM 79.5 °F 66.9 °F 65% 29.95 in 10.0 mi South 9.2 mph - N/A   Clear
1:55 PM 79.7 °F 67.5 °F 66% 29.94 in 10.0 mi SSW 10.4 mph - N/A   Clear
3:55 PM 77.0 °F 64.8 °F 66% 29.89 in 10.0 mi SW 13.8 mph - N/A   Mostly Cloudy
4:55 PM 78.1 °F 68.9 °F 73% 29.88 in 10.0 mi SSW 11.5 mph - N/A   Scattered Clouds
5:55 PM 76.8 °F 68.9 °F 76% 29.88 in 10.0 mi SW 13.8 mph - N/A   Clear
6:55 PM 75.9 °F 69.1 °F 79% 29.88 in 10.0 mi SSW 13.8 mph - N/A   Mostly Cloudy
7:55 PM 75.4 °F 69.3 °F 81% 29.89 in 10.0 mi SSW 12.7 mph - N/A   Mostly Cloudy
8:55 PM 75.2 °F 68.9 °F 81% 29.90 in 10.0 mi SSW 16.1 mph - N/A   Mostly Cloudy
9:12 PM 75.2 °F 69.8 °F 83% 29.91 in 10.0 mi SSW 15.0 mph - N/A Rain Light Rain
9:24 PM 73.4 °F 71.6 °F 94% 29.91 in 10.0 mi SW 11.5 mph - N/A   Overcast
9:55 PM 73.8 °F 66.7 °F 79% 29.91 in 10.0 mi WSW 9.2 mph - 0.01 in   Overcast
10:53 PM 73.4 °F 64.4 °F 73% 29.91 in 10.0 mi WSW 8.1 mph - N/A Rain Light Rain
10:55 PM 73.9 °F 64.6 °F 72% 29.91 in 10.0 mi WSW 6.9 mph - 0.00 in Rain Light Rain
11:39 PM 71.6 °F 66.2 °F 83% 29.92 in 10.0 mi West 3.5 mph - N/A   Overcast
11:55 PM 72.1 °F 66.0 °F 81% 29.91 in 10.0 mi West 3.5 mph - 0.00 in   Overcast